Nassau, Bahamas

2:22 PM EST on December 02, 2016 (GMT -0500)
Nassau International

Weather History for MYNN - April, 2013

Change the Weather History Date:

Monday, April 22, 2013

  Actual Average Record
Temperature  
Mean Temperature 77 °F -  
Max Temperature 82 °F 82 °F 87 °F (1998)
Min Temperature 72 °F 69 °F 66 °F (2004)
Cooling Degree Days 12    
Growing Degree Days 27 (Base 50)    
Moisture  
Dew Point 71 °F    
Average Humidity 78    
Maximum Humidity 89    
Minimum Humidity 61    
Precipitation  
Precipitation 0.08 in - - ()
Sea Level Pressure  
Sea Level Pressure 30.01 in    
Wind  
Wind Speed 6 mph ()    
Max Wind Speed 13 mph    
Max Gust Speed -    
Visibility 6.7 miles    
Events Rain    
Averages and records for this station are not official NWS values.
T = Trace of Precipitation, MM = Missing Value Source: Averaged Metar Reports

Daily Weather History Graph

Daily Weather History Graph

Search for Another Location

Airport or City:

Trip Planner

Search our weather history database for the weather conditions in past years. The results will help you decide how hot, cold, wet, or windy it might be!

Date:

Astronomy

Apr. 22, 2013 Rise Set
Actual Time 6:41 AM EDT 7:35 PM EDT
Civil Twilight 6:17 AM EDT 7:59 PM EDT
Nautical Twilight 5:49 AM EDT 8:27 PM EDT
Astronomical Twilight 5:21 AM EDT 8:56 PM EDT
Moon 4:40 PM EDT (4/22) 4:13 AM EDT (4/22)
Length of Visible Light 13h 42m
Length of Day
12h 54m
Waxing Gibbous, 87% of the Moon is Illuminated
Apr 22
Waxing Gibbous
Apr 25
Full
May 2
Last Quarter
May 9
New
May 18
First Quarter

Hourly Weather History & Observations

Time (EDT) Temp. Heat Index Dew Point Humidity Pressure Visibility Wind Dir Wind Speed Gust Speed Precip Events Conditions
12:00 AM 77.0 °F - 69.8 °F 78% 30.07 in 6.2 mi East 9.2 mph - N/A   Mostly Cloudy
1:00 AM 77.0 °F - 69.8 °F 78% 30.06 in 6.2 mi East 9.2 mph - N/A   Mostly Cloudy
2:00 AM 77 °F - 73 °F 85% 30.05 in 8 mi ESE 6.9 mph - -   Partly Cloudy
2:00 AM 77.0 °F - 71.6 °F 83% 30.05 in 6.2 mi ESE 6.9 mph - N/A   Mostly Cloudy
3:00 AM 77.0 °F - 69.8 °F 78% 30.02 in 6.2 mi East 3.5 mph - N/A   Mostly Cloudy
4:00 AM 77.0 °F - 69.8 °F 78% 30.02 in 6.2 mi ESE 4.6 mph - N/A   Mostly Cloudy
5:00 AM 77 °F - 71 °F 75% 30.01 in 8 mi ESE 11.5 mph - -   Partly Cloudy
5:00 AM 77.0 °F - 69.8 °F 78% 30.01 in 6.2 mi ESE 11.5 mph - N/A   Mostly Cloudy
6:00 AM 77.0 °F - 69.8 °F 78% 30.01 in 6.2 mi SE 6.9 mph - N/A   Mostly Cloudy
7:00 AM 77.0 °F - 71.6 °F 83% 30.02 in 5.6 mi North - - N/A Rain Light Rain Showers
8:00 AM 74 °F - 71 °F 88% 30.02 in 8 mi East 3.5 mph - - Rain Light Rain Showers
8:00 AM 75.2 °F - 71.6 °F 89% 30.02 in 6.2 mi East 3.5 mph - N/A   Mostly Cloudy
9:00 AM 78.8 °F - 69.8 °F 74% 30.03 in 6.2 mi SE 10.4 mph - N/A   Mostly Cloudy
10:00 AM 78.8 °F - 69.8 °F 74% 30.04 in 6.2 mi SE 9.2 mph - N/A   Mostly Cloudy
11:00 AM 81 °F - 70 °F 61% 30.04 in 8 mi SSE 9.2 mph - -   Overcast
11:00 AM 80.6 °F 83.9 °F 69.8 °F 70% 30.03 in 6.2 mi SSE 9.2 mph - N/A   Overcast
12:00 PM 78.8 °F - 69.8 °F 74% 30.03 in 6.2 mi SSE 9.2 mph - N/A   Overcast
1:00 PM 78.8 °F - 69.8 °F 74% 30.01 in 6.2 mi SSE 12.7 mph - N/A   Mostly Cloudy
2:00 PM 79 °F - 71 °F 69% 30.01 in 8 mi SSE 6.9 mph - - Rain Light Rain
2:00 PM 78.8 °F - 69.8 °F 74% 30.00 in 6.2 mi SSE 6.9 mph - N/A Rain Light Rain
3:00 PM 77.0 °F - 71.6 °F 83% 29.98 in 6.2 mi SSE 3.5 mph - N/A Rain Light Rain
4:00 PM 77.0 °F - 69.8 °F 78% 29.96 in 6.2 mi SSE 10.4 mph - N/A   Overcast
5:00 PM 80 °F - 71 °F 67% 29.95 in 8 mi South 5.8 mph - -   Partly Cloudy
5:00 PM 80.6 °F 84.6 °F 71.6 °F 74% 29.95 in 6.2 mi South 5.8 mph - N/A   Mostly Cloudy
6:00 PM 78.8 °F - 69.8 °F 74% 29.95 in 6.2 mi ESE 5.8 mph - N/A   Mostly Cloudy
7:00 PM 77.0 °F - 69.8 °F 78% 29.96 in 6.2 mi SSE 2.3 mph - N/A   Mostly Cloudy
8:00 PM 77 °F - 72 °F 79% 29.97 in 8 mi SSE 2.3 mph - -   Partly Cloudy
8:00 PM 77.0 °F - 71.6 °F 83% 29.97 in 6.2 mi SSE 2.3 mph - N/A   Mostly Cloudy
9:00 PM 75.2 °F - 69.8 °F 83% 29.99 in 6.2 mi Calm Calm - N/A   Mostly Cloudy
10:00 PM 75.2 °F - 69.8 °F 83% 30.00 in 6.2 mi Variable 2.3 mph - N/A   Mostly Cloudy
11:00 PM 75 °F - 72 °F 87% 30.01 in 9 mi Calm Calm - -   Partly Cloudy
11:00 PM 75.2 °F - 71.6 °F 89% 30.01 in 6.2 mi Calm Calm - N/A   Mostly Cloudy